Location: La Fredeussais
(48.1780°N, 1.3980°W)
Time: 09:30:28
(UTC+00:00)

USA 307 - Pass Details

Date: 09 May 2021
Orbit: 566 x 577 km, 54.0° (Epoch: 10 May)

Event Time Altitude Azimuth Distance (km) Brightness Sun altitude
Rises 21:02:42 0° 295° (WNW) 2,776 7.8 -13.0°
Reaches altitude 10° 21:05:00 10° 301° (WNW) 1,879 6.8 -13.3°
Maximum altitude 21:09:10 50° 17° (NNE) 736 3.6 -13.8°
Enters shadow 21:12:48 13° 92° (E) 1,674 4.9 -14.2°
